COSMOS 1275 DEB, 18601

Orbit data source: Space-Track

COSMOS 1275 DEB, 18601 is space debris in LEO originally from a launch on Thu, 04 Jun 1981 UTC launched from the Plesetsk Missile And Space Complex (PKMTR). Debris objects in space refer to the collection of defunct objects orbiting the Earth. Examples of debris include non-operational satellites, rocket bodies, and fragments generated from explosions, collisions, or faulty payload assembly.

Loading next visibility...
Identifier
18601, 1981-053LW
Orbit
LEO
Country
Flag of CISCIS
Related business
Manufacturer
Unknown
Mission
Spacecraft
Bus & Motor
Unknown
Mass
Unknown
Launch date (UTC)
1981-06-04 (45 years ago)
Launch vehicle
Unknown
Launch site
Plesetsk Missile And Space Complex (PKMTR)
Object type
Payload
Rocket body
Debris
Shape & HBR
Unknown shape, 0.1 m
Radar Cross Section
Small (<0.1 m²)

Expand to show TLE details & history
Last TLE update: 1 day ago

TLE from 1 day ago
0 COSMOS 1275 DEB
1 18601U 81053LW  26071.79514095  .00003521  00000-0  15503-2 0  9996
2 18601  82.7796  95.5691 0054847  68.8686  56.8523 14.22411148967449
Epoch: 2026-03-12T19:05Z
TLE epoch observation values (Epoch: 2026-03-12T19:05:00.178Z)
Latitude
53.23599°
Longitude
169.16779°
Altitude
804.494 km
Speed
7.467 km/s
True Right ascension
17h 43m 26s
True Declination
53° 04' 19"
Sunlit
Object was in daylight at epoch
Visualization orbit readout
Latitude
Unknown
Longitude
Unknown
Altitude
Unknown
Speed
Unknown
Apparent Right ascension
Unknown
Apparent Declination
Unknown
Sunlit
N/A
Visualization observer readout
Local Sidereal Time
09:55:00
Azimuth
Unknown
Elevation
Unknown
Doppler factor
Unknown
Orbital elements
Apogee altitude
853.748 km
Perigee altitude
774.851 km
Semi-major axis
7,192.437 km
Eccentricity
0.00548
Inclination
82.7796°
RAAN
95.5691°
Arg. of periapsis
68.8686°
True anomaly
57.38049°
Mean anomaly
56.8523°
Eccentric anomaly
57.1162°
Mean motion
3.55819 °/min
Orbital period
101.18 mins
BSTAR
0.0015503
Loading maneuver chart data...
Computing Atmospheric mass density...
Loading historical data...
Loading historical data...
Loading historical data...
Loading historical data...
Loading historical data...
Loading historical data...
Loading historical data...

Documentation

Showing up to 5 results
|